Regional Weather Roundup
Issued by NWS Charleston, SC

Home | Current Version | Previous Version | Text Only | Print | Product List | Glossary On
Versions: 1 2 3 4 5 6 7 8 9 10 11 12 13 14 15 16 17 18 19 20 21 22 23 24 25 26 27 28 29 30 31 32 33 34 35 36 37 38 39 40 41 42 43 44 45 46 47 48 49 50
000
ASUS42 KCHS 250812
RWRCHS

REGIONAL WEATHER ROUNDUP
NATIONAL WEATHER SERVICE CHARLESTON SC
300 AM EST SAT NOV 25 2017

NOTE: "FAIR" INDICATES FEW OR NO CLOUDS BELOW 12,000 FEET WITH NO
SIGNIFICANT WEATHER AND/OR OBSTRUCTIONS TO VISIBILITY.

NOT ALL STATIONS ARE QUALITY CONTROLLED. USE DATA WITH CAUTION...
ESPECIALLY DEWPOINT OBSERVATIONS.

SCZ027-030-031-034>040-042>050-250900-
...SOUTHEAST SOUTH CAROLINA...

CITY           SKY/WX    TMP DP  RH WIND       PRES   REMARKS
N CHARLESTON   PTCLDY    38  38 100 NW5       29.97S WCI  34
WATERFRONT PRK   N/A     51  40  65 CALM      29.82F
JOHNS ISLAND   FAIR      45  41  87 NW5       29.97S
PINOPOLIS        N/A     48  39  71 CALM      29.90R
MONCKS CORNER  FAIR      36  34  93 CALM      29.98R
SUMMERVILLE    FAIR      36  34  93 CALM      29.99S
BEAUFORT MCAS  PTCLDY    39  38  96 CALM      29.99S
BEAUFORT ARPT  FAIR      43  41  93 CALM      29.98S
HILTON HEAD IS CLEAR     43  41  93 CALM      30.00R
WALTERBORO     SUNNY     34  32  93 CALM      30.00R
ALLENDALE      FAIR      36  36 100 CALM      29.98S

...SOUTHERN MIDLANDS AND PEE DEE...

CITY           SKY/WX    TMP DP  RH WIND       PRES   REMARKS
GEORGETOWN     FAIR      39  37  93 CALM      29.98R
KINGSTREE      FAIR      32  30  93 CALM      29.97S
ORANGEBURG     CLEAR     36  35  96 CALM      29.99R
BARNWELL         N/A     34  32  93 CALM      29.98F
AIKEN          FAIR      32  32 100 CALM      30.00S
MANNING        FAIR      32  32 100 MISG      29.98S
COLUMBIA       CLEAR     35  33  92 CALM      29.97S
SUMTER         CLEAR     37  33  86 CALM      29.95S
FLORENCE       CLOUDY    31  30  96 CALM      29.97S
MYRTLE BEACH   CLEAR     44  35  70 NW3       29.97S
N MYRTLE BEACH CLEAR     45  36  70 NW5       29.95R

$$

GAZ063-065-086>088-099>101-113>116-118-119-134>141-150-250900-
...SOUTHEAST GEORGIA...

CITY           SKY/WX    TMP DP  RH WIND       PRES   REMARKS
SAVANNAH ARPT  CLEAR     39  38  96 CALM      30.00S
HUNTER AAF     CLEAR     40  37  90 CALM      29.97S
FORT STEWART   CLEAR     38  37  93 CALM      29.98S
STATESBORO     CLEAR     36  36 100 CALM      30.00S
SYLVANIA       SUNNY     36  35  99 CALM      30.00F
CLAXTON        FAIR      36  36  99 CALM      30.00F

...CSRA...CENTRAL AND FAR SOUTHEAST GEORGIA...

CITY           SKY/WX    TMP DP  RH WIND       PRES   REMARKS
THOMSON        CLEAR     32  31  96 CALM      30.02S
AUGUSTA-BUSH   CLEAR     33  32  96 CALM      29.98S
AUGUSTA-DANIEL CLEAR     43  38  82 CALM      29.98S
SWAINSBORO     FAIR      36  36 100 CALM      29.99F
VIDALIA        CLEAR     41  39  93 CALM      29.99F
EASTMAN        FAIR      36  31  82 CALM      30.02S
HAZLEHURST     FAIR      41  39  95 CALM      29.98F
ALMA           PTCLDY    39  37  92 CALM      29.99S FOG
WAYCROSS       CLEAR     41  39  91 CALM      30.00S FOG
JESUP          FAIR      37  36  93 CALM      30.00S
BAXLEY         FAIR      36  36 100 CALM      29.99F
BRUNSWICK      FOG       41  39  93 CALM      30.00S VSB 1/2
SAINT SIMONS   CLEAR     46  44  93 CALM      29.99R

$$

SCZ027-028-034-036>038-045-046-048>050-GAZ119-141-250900-
...LAKE AND SUPPLEMENTAL COASTAL OBSERVATIONS...

STATION/POSITION TIME  TEMP    WIND        PRES    WAVE   SWELL
                       AIR SEA DIR/SP/G            HT/PER HT/PER/DIR
                 (UTC) (F)     (DEG/KT/KT) (MB)    (FT/S) (FT/S/D)
WINYAH BAY       0645   45     320/  4     1014.0
LAKE MURRAY      0720   46     280/  2/  2 1013.9F
ACE BASIN NERRS  0645   42        CALM     1015.0
FORT PULASKI     0742   51 60  320/  6/  7 1015.8R
SAPELO ISLAND    0700   45        CALM     1015.0

$$

ANZ835-935-AMZ111-154-330-350-352-354-370-450-454-472-250900-
...C-MAN AND BUOY OBSERVATIONS...

STATION/POSITION TIME  TEMP    WIND        PRES    WAVE   SWELL
                       AIR SEA DIR/SP/G            HT/PER HT/PER/DIR
                 (UTC) (F)     (DEG/KT/KT) (MB)    (FT/S) (FT/S/D)
BUOY 41004       0750   61 74  340/ 14/ 16 1013.5F   6/10   5/100/10
BUOY 41008       0750   61 65  350/  8/ 10 1015.0S   4/10   3/100/10
FOLLY BEACH CMAN 0700   53     350/  5/  7 1015.3R
CAPERS NEARSHORE 0708   51 60  350/  8/ 10 1014.3R
FRIPP NEARSHORE  0708   52 61  330/  6/ 12 1014.6R


STATION/POSITION TIME  TEMP    WIND        PRES    WAVE   SWELL
                       AIR SEA DIR/SP/G            HT/PER HT/PER/DIR
                 (UTC) (F)     (DEG/KT/KT) (MB)    (FT/S) (FT/S/D)
5E ST. MARYS GA  0730      66                N/A     3/ 9   2/ 80/11
FRYING PAN BUOY  0750   60 72  330/ 14/ 17 1012.5R   7/10   5/120/10
BUOY 41025       0750   67 71   20/ 12/ 14 1011.1F   6/ 9   5/110/ 9
CAPE LOOKOUT NC  0700          360/  9/ 10 1012.1F
BUOY 41002       0750   75 76  240/ 17/ 21 1007.0F   7/ 8   5/ 40/ 9
BUOY 41010       NOT AVBL
ST AUGUSTINE FL  0800   54 66  270/  6/  7 1015.4S


$$



USA.gov is the U.S. government's official web portal to all federal, state and local government web resources and services.